Albuquerque Double Eagle, NM

4:07 AM MST on January 18, 2018 (GMT -0700)
Double Eagle Ii

Weather History for KAEG - October, 2013

Change the Weather History Date:

Sunday, October 20, 2013

  Actual Average (KABQ) Record (KABQ)
Temperature  
Mean Temperature 47 °F -  
Max Temperature 67 °F 68 °F 84 °F (2007)
Min Temperature 28 °F 41 °F 24 °F (1898)
Degree Days  
Heating Degree Days 18    
Moisture  
Dew Point 17 °F    
Average Humidity 32    
Maximum Humidity 59    
Minimum Humidity 12    
Precipitation  
Precipitation 0.00 in - - ()
Sea Level Pressure  
Sea Level Pressure 30.06 in    
Wind  
Wind Speed 10 mph (WNW)    
Max Wind Speed 20 mph    
Max Gust Speed 20 mph    
Visibility 10 miles    
Events      
Averages and records for this station are not official NWS values.
T = Trace of Precipitation, MM = Missing Value Source: NWS Daily Summary

Daily Weather History Graph

Daily Weather History Graph

Search for Another Location

Airport or City:

Trip Planner

Search our weather history database for the weather conditions in past years. The results will help you decide how hot, cold, wet, or windy it might be!

Date:

Astronomy

Oct. 20, 2013 Rise Set
Actual Time 7:17 AM MDT 6:25 PM MDT
Civil Twilight 6:52 AM MDT 6:51 PM MDT
Nautical Twilight 6:22 AM MDT 7:20 PM MDT
Astronomical Twilight 5:53 AM MDT 7:50 PM MDT
Moon 7:40 PM MDT (10/20) 8:54 AM MDT (10/20)
Length of Visible Light 11h 59m
Length of Day
11h 07m
Full, 97% of the Moon is Illuminated
Oct 20
Full
Oct 26
Last Quarter
Nov 3
New
Nov 9
First Quarter
Nov 17
Full

Hourly Weather History & Observations

Time (MDT) Temp. Windchill Dew Point Humidity Pressure Visibility Wind Dir Wind Speed Gust Speed Precip Events Conditions
12:15 AM 45.7 °F 39.5 °F 17.1 °F 32% 30.12 in 10.0 mi WNW 13.8 mph - N/A   Clear
12:35 AM 46.4 °F 41.1 °F 17.4 °F 31% 30.12 in 10.0 mi WNW 11.5 mph - N/A   Clear
12:55 AM 46.2 °F 40.5 °F 17.4 °F 32% 30.12 in 10.0 mi WNW 12.7 mph - N/A   Clear
1:15 AM 45.9 °F 40.4 °F 17.4 °F 32% 30.12 in 10.0 mi WNW 11.5 mph - N/A   Clear
1:35 AM 45.9 °F 39.7 °F 17.2 °F 32% 30.11 in 10.0 mi NW 13.8 mph - N/A   Clear
1:55 AM 45.5 °F 40.3 °F 16.9 °F 32% 30.11 in 10.0 mi WNW 10.4 mph - N/A   Clear
2:15 AM 46.4 °F 40.7 °F 16.7 °F 31% 30.11 in 10.0 mi NW 12.7 mph - N/A   Clear
2:35 AM 44.6 °F 39.7 °F 16.7 °F 33% 30.11 in 10.0 mi NW 9.2 mph - N/A   Clear
2:55 AM 43.0 °F 37.2 °F 17.1 °F 35% 30.11 in 10.0 mi NW 10.4 mph - N/A   Clear
3:15 AM 42.6 °F 36.8 °F 17.1 °F 36% 30.10 in 10.0 mi NW 10.4 mph - N/A   Clear
3:35 AM 38.7 °F 32.4 °F 17.1 °F 42% 30.10 in 10.0 mi NW 9.2 mph - N/A   Clear
3:55 AM 36.5 °F 29.7 °F 16.9 °F 45% 30.10 in 10.0 mi NW 9.2 mph - N/A   Clear
4:15 AM 37.4 °F 32.8 °F 16.7 °F 43% 30.09 in 10.0 mi NW 5.8 mph - N/A   Clear
4:35 AM 34.2 °F 28.2 °F 16.3 °F 48% 30.09 in 10.0 mi NW 6.9 mph - N/A   Clear
4:55 AM 32.2 °F 27.7 °F 16.0 °F 51% 30.09 in 10.0 mi NW 4.6 mph - N/A   Clear
5:15 AM 35.8 °F - 16.2 °F 45% 30.08 in 10.0 mi Calm Calm - N/A   Clear
5:35 AM 32.5 °F 29.3 °F 15.8 °F 50% 30.08 in 10.0 mi WSW 3.5 mph - N/A   Clear
5:50 AM 28.4 °F 22.2 °F 15.8 °F 59% 30.09 in 10.0 mi Variable 5.8 mph - N/A   Clear
6:50 AM 32.0 °F 24.2 °F 15.8 °F 51% 30.09 in 10.0 mi SW 9.2 mph - N/A   Clear
7:50 AM 30.2 °F - 15.8 °F 55% 30.09 in 10.0 mi Calm Calm - N/A   Clear
8:50 AM 46.4 °F - 19.4 °F 34% 30.10 in 10.0 mi Calm Calm - N/A   Clear
9:50 AM 51.8 °F - 19.4 °F 28% 30.10 in 10.0 mi Calm Calm - N/A   Clear
10:50 AM 53.6 °F - 19.4 °F 26% 30.08 in 10.0 mi Variable 5.8 mph - N/A   Clear
11:50 AM 57.2 °F - 19.4 °F 23% 30.07 in 10.0 mi Variable 5.8 mph - N/A   Clear
12:19 PM 62.6 °F - 17.6 °F 18% 30.06 in 10.0 mi NNW 11.5 mph 19.6 mph N/A   Clear
12:48 PM 66.2 °F - 39.2 °F 37% 29.98 in 10.0 mi South 15.0 mph - N/A   Clear
12:50 PM 62.6 °F - 17.6 °F 18% 30.05 in 10.0 mi NW 9.2 mph - N/A   Clear
1:50 PM 62.6 °F - 17.6 °F 18% 30.00 in 10.0 mi WNW 6.9 mph - N/A   Clear
2:50 PM 64.4 °F - 17.6 °F 16% 29.98 in 10.0 mi Calm Calm - N/A   Clear
3:50 PM 66.2 °F - 17.6 °F 15% 29.96 in 10.0 mi West 8.1 mph - N/A   Clear
4:50 PM 66.2 °F - 12.2 °F 12% 29.96 in 10.0 mi NW 19.6 mph - N/A   Clear
5:50 PM 64.4 °F - 12.2 °F 13% 29.97 in 10.0 mi NW 12.7 mph - N/A   Clear
6:50 PM 57.2 °F - 12.2 °F 17% 29.98 in 10.0 mi NNW 8.1 mph - N/A   Clear
7:50 PM 51.8 °F - 12.2 °F 21% 29.99 in 10.0 mi NW 6.9 mph - N/A   Clear
8:50 PM 46.4 °F 41.9 °F 12.2 °F 25% 30.00 in 10.0 mi NW 9.2 mph - N/A   Clear
9:50 PM 48.2 °F - 15.8 °F 27% 30.02 in 10.0 mi NNW 8.1 mph - N/A   Clear
10:15 PM 46.6 °F - 15.4 °F 29% 30.03 in 10.0 mi West 8.1 mph - N/A   Clear
10:35 PM 45.9 °F 40.8 °F 15.6 °F 30% 30.04 in 10.0 mi West 10.4 mph - N/A   Clear
10:55 PM 42.1 °F 36.6 °F 15.8 °F 35% 30.05 in 10.0 mi WSW 9.2 mph - N/A   Clear
11:15 PM 41.0 °F 34.7 °F 15.3 °F 35% 30.05 in 10.0 mi West 10.4 mph - N/A   Clear
11:35 PM 44.2 °F 38.8 °F 15.8 °F 32% 30.05 in 10.0 mi West 10.4 mph - N/A   Clear
11:55 PM 45.9 °F 41.7 °F 16.7 °F 31% 30.05 in 10.0 mi West 8.1 mph - N/A   Clear